Time,TemperatureF,DewpointF,PressureIn,WindDirection,WindDirectionDegrees,WindSpeedMPH,WindSpeedGustMPH,Humidity,HourlyPrecipIn,Conditions,Clouds,dailyrainin,SoftwareType,DateUTC
2013-01-19 05:44:00,56.9,15.0,30.16,SSE,159,0.0,0.0,19,0.00,,,0.00,Wunderground v.1.15,2013-01-19 13:44:00,
2013-01-19 05:48:00,57.1,15.2,30.16,North,355,0.0,1.0,19,0.00,,,0.00,Wunderground v.1.15,2013-01-19 13:48:00,
2013-01-19 05:50:00,57.5,15.5,30.16,SW,231,1.0,2.0,19,0.00,,,0.00,Wunderground v.1.15,2013-01-19 13:50:00,
2013-01-19 05:54:00,58.2,16.1,30.16,NNE,30,1.0,1.0,19,0.00,,,0.00,Wunderground v.1.15,2013-01-19 13:54:00,
2013-01-19 06:00:00,58.4,15.0,30.16,NW,309,1.0,1.0,18,0.00,,,0.00,Wunderground v.1.15,2013-01-19 14:00:00,
2013-01-19 06:06:00,58.5,15.1,30.17,SSW,201,0.0,4.0,18,0.00,,,0.00,Wunderground v.1.15,2013-01-19 14:06:00,
2013-01-19 06:12:00,58.3,14.9,30.17,South,190,0.0,1.0,18,0.00,,,0.00,Wunderground v.1.15,2013-01-19 14:12:00,
2013-01-19 06:18:00,58.4,15.0,30.17,SE,143,0.0,2.0,18,0.00,,,0.00,Wunderground v.1.15,2013-01-19 14:18:00,
2013-01-19 06:24:00,58.0,15.9,30.17,West,273,0.0,0.0,19,0.00,,,0.00,Wunderground v.1.15,2013-01-19 14:24:00,
2013-01-19 06:30:00,57.8,15.7,30.17,SSW,195,0.0,0.0,19,0.00,,,0.00,Wunderground v.1.15,2013-01-19 14:30:00,
2013-01-19 06:36:00,57.6,15.6,30.17,NE,44,0.0,5.0,19,0.00,,,0.00,Wunderground v.1.15,2013-01-19 14:36:00,
2013-01-19 06:42:00,57.7,14.4,30.17,ESE,113,0.0,5.0,18,0.00,,,0.00,Wunderground v.1.15,2013-01-19 14:42:00,
2013-01-19 06:48:00,57.2,15.2,30.17,ESE,103,0.0,5.0,19,0.00,,,0.00,Wunderground v.1.15,2013-01-19 14:48:00,
2013-01-19 06:54:00,57.4,15.4,30.18,ENE,76,0.0,5.0,19,0.00,,,0.00,Wunderground v.1.15,2013-01-19 14:54:00,
2013-01-19 07:00:00,57.6,15.6,30.18,East,83,0.0,0.0,19,0.00,,,0.00,Wunderground v.1.15,2013-01-19 15:00:00,
2013-01-19 07:06:00,57.5,15.5,30.18,North,355,0.0,0.0,19,0.00,,,0.00,Wunderground v.1.15,2013-01-19 15:06:00,
2013-01-19 07:12:00,57.3,15.3,30.18,ESE,121,0.0,1.0,19,0.00,,,0.00,Wunderground v.1.15,2013-01-19 15:12:00,
2013-01-19 07:18:00,57.2,15.2,30.18,SE,124,0.0,1.0,19,0.00,,,0.00,Wunderground v.1.15,2013-01-19 15:18:00,
2013-01-19 07:24:00,57.2,15.2,30.18,ESE,117,0.0,1.0,19,0.00,,,0.00,Wunderground v.1.15,2013-01-19 15:24:00,
2013-01-19 07:30:00,57.6,15.6,30.18,SE,135,0.0,0.0,19,0.00,,,0.00,Wunderground v.1.15,2013-01-19 15:30:00,
2013-01-19 07:36:00,57.8,15.7,30.18,ENE,76,0.0,7.0,19,0.00,,,0.00,Wunderground v.1.15,2013-01-19 15:36:00,
2013-01-19 07:42:00,58.0,15.9,30.19,ESE,107,0.0,7.0,19,0.00,,,0.00,Wunderground v.1.15,2013-01-19 15:42:00,
2013-01-19 07:48:00,58.2,16.1,30.19,NE,36,0.0,7.0,19,0.00,,,0.00,Wunderground v.1.15,2013-01-19 15:48:00,
2013-01-19 07:54:00,58.2,16.1,30.19,ESE,121,0.0,7.0,19,0.00,,,0.00,Wunderground v.1.15,2013-01-19 15:54:00,
2013-01-19 08:00:00,58.1,16.0,30.19,NNW,329,0.0,0.0,19,0.00,,,0.00,Wunderground v.1.15,2013-01-19 16:00:00,
2013-01-19 08:06:00,58.1,16.0,30.19,ESE,117,0.0,0.0,19,0.00,,,0.00,Wunderground v.1.15,2013-01-19 16:06:00,
2013-01-19 08:12:00,58.6,16.4,30.19,NW,307,0.0,1.0,19,0.00,,,0.00,Wunderground v.1.15,2013-01-19 16:12:00,
2013-01-19 08:18:00,58.8,16.6,30.19,SE,128,0.0,1.0,19,0.00,,,0.00,Wunderground v.1.15,2013-01-19 16:18:00,
2013-01-19 08:24:00,58.9,16.7,30.19,East,96,0.0,2.0,19,0.00,,,0.00,Wunderground v.1.15,2013-01-19 16:24:00,
2013-01-19 08:30:00,59.1,16.8,30.19,SE,135,0.0,0.0,19,0.00,,,0.00,Wunderground v.1.15,2013-01-19 16:30:00,
2013-01-19 08:36:00,59.5,17.1,30.20,East,95,1.0,3.0,19,0.00,,,0.00,Wunderground v.1.15,2013-01-19 16:36:00,
2013-01-19 08:42:00,59.7,17.3,30.20,West,266,0.0,3.0,19,0.00,,,0.00,Wunderground v.1.15,2013-01-19 16:42:00,
2013-01-19 08:48:00,59.8,18.6,30.20,SE,126,0.0,3.0,20,0.00,,,0.00,Wunderground v.1.15,2013-01-19 16:48:00,
2013-01-19 08:54:00,59.9,18.7,30.21,ESE,111,0.0,3.0,20,0.00,,,0.00,Wunderground v.1.15,2013-01-19 16:54:00,
2013-01-19 09:00:00,60.1,18.8,30.21,ESE,110,0.0,0.0,20,0.00,,,0.00,Wunderground v.1.15,2013-01-19 17:00:00,
2013-01-19 09:06:00,60.8,18.2,30.21,NE,46,1.0,1.0,19,0.00,,,0.00,Wunderground v.1.15,2013-01-19 17:06:00,
2013-01-19 09:20:00,62.7,19.8,30.22,NNW,348,1.0,1.0,19,0.00,,,0.00,Wunderground v.1.15,2013-01-19 17:20:00,
2013-01-19 09:26:00,63.8,19.4,30.22,SE,136,1.0,1.0,18,0.00,,,0.00,Wunderground v.1.15,2013-01-19 17:26:00,
2013-01-19 09:32:00,64.7,21.4,30.22,NE,34,1.0,2.0,19,0.00,,,0.00,Wunderground v.1.15,2013-01-19 17:32:00,
2013-01-19 09:38:00,65.5,20.8,30.22,NW,322,1.0,4.0,18,0.00,,,0.00,Wunderground v.1.15,2013-01-19 17:38:00,
2013-01-19 10:44:00,70.5,19.0,30.20,NNW,332,4.0,4.0,14,0.00,,,0.00,Wunderground v.1.15,2013-01-19 18:44:00,
2013-01-19 10:50:00,71.0,17.6,30.19,NNW,345,3.0,3.0,13,0.00,,,0.00,Wunderground v.1.15,2013-01-19 18:50:00,
2013-01-19 10:56:00,71.5,18.0,30.19,East,93,2.0,4.0,13,0.00,,,0.00,Wunderground v.1.15,2013-01-19 18:56:00,
2013-01-19 11:02:00,71.7,19.9,30.19,NNW,335,2.0,4.0,14,0.00,,,0.00,Wunderground v.1.15,2013-01-19 19:02:00,
2013-01-19 11:08:00,72.1,18.5,30.19,NE,56,2.0,5.0,13,0.00,,,0.00,Wunderground v.1.15,2013-01-19 19:08:00,
2013-01-19 11:14:00,72.5,18.8,30.18,NE,39,3.0,3.0,13,0.00,,,0.00,Wunderground v.1.15,2013-01-19 19:14:00,
2013-01-19 11:20:00,72.6,18.9,30.18,NNW,328,3.0,4.0,13,0.00,,,0.00,Wunderground v.1.15,2013-01-19 19:20:00,
2013-01-19 11:28:00,72.8,17.2,30.17,NNE,19,4.0,6.0,12,0.00,,,0.00,Wunderground v.1.15,2013-01-19 19:28:00,
2013-01-19 11:34:00,72.9,17.3,30.17,NE,36,4.0,10.0,12,0.00,,,0.00,Wunderground v.1.15,2013-01-19 19:34:00,
2013-01-19 11:44:00,73.2,17.5,30.17,North,5,4.0,10.0,12,0.00,,,0.00,Wunderground v.1.15,2013-01-19 19:44:00,
2013-01-19 11:50:00,73.2,17.5,30.16,North,359,4.0,10.0,12,0.00,,,0.00,Wunderground v.1.15,2013-01-19 19:50:00,
2013-01-19 11:58:00,73.7,17.9,30.16,NNE,29,3.0,10.0,12,0.00,,,0.00,Wunderground v.1.15,2013-01-19 19:58:00,
2013-01-19 12:04:00,73.7,17.9,30.16,NE,49,3.0,5.0,12,0.00,,,0.00,Wunderground v.1.15,2013-01-19 20:04:00,
2013-01-19 12:10:00,74.0,18.1,30.15,North,6,3.0,4.0,12,0.00,,,0.00,Wunderground v.1.15,2013-01-19 20:10:00,
2013-01-19 12:16:00,74.1,16.2,30.15,NW,324,3.0,8.0,11,0.00,,,0.00,Wunderground v.1.15,2013-01-19 20:16:00,
2013-01-19 12:22:00,74.4,18.4,30.15,NNE,26,3.0,7.0,12,0.00,,,0.00,Wunderground v.1.15,2013-01-19 20:22:00,
2013-01-19 12:30:00,74.5,16.5,30.14,NNE,33,4.0,4.0,11,0.00,,,0.00,Wunderground v.1.15,2013-01-19 20:30:00,
2013-01-19 12:36:00,74.8,16.7,30.14,NE,52,4.0,11.0,11,0.00,,,0.00,Wunderground v.1.15,2013-01-19 20:36:00,
2013-01-19 12:42:00,74.7,14.5,30.14,NNW,342,4.0,11.0,10,0.00,,,0.00,Wunderground v.1.15,2013-01-19 20:42:00,
2013-01-19 12:50:00,74.6,16.6,30.13,NNE,32,4.0,11.0,11,0.00,,,0.00,Wunderground v.1.15,2013-01-19 20:50:00,
2013-01-19 12:56:00,74.9,16.8,30.13,NNW,346,4.0,11.0,11,0.00,,,0.00,Wunderground v.1.15,2013-01-19 20:56:00,
2013-01-19 13:02:00,75.0,16.9,30.13,NNW,342,4.0,6.0,11,0.00,,,0.00,Wunderground v.1.15,2013-01-19 21:02:00,
2013-01-19 13:10:00,75.1,17.0,30.12,NNE,29,4.0,5.0,11,0.00,,,0.00,Wunderground v.1.15,2013-01-19 21:10:00,
2013-01-19 13:16:00,75.1,17.0,30.13,NNE,23,5.0,9.0,11,0.00,,,0.00,Wunderground v.1.15,2013-01-19 21:16:00,
2013-01-19 13:22:00,75.3,14.9,30.12,North,360,5.0,5.0,10,0.00,,,0.00,Wunderground v.1.15,2013-01-19 21:22:00,
2013-01-19 13:28:00,75.4,15.0,30.12,North,8,5.0,6.0,10,0.00,,,0.00,Wunderground v.1.15,2013-01-19 21:28:00,
2013-01-19 13:40:00,75.0,12.3,30.12,NE,44,6.0,13.0,9,0.00,,,0.00,Wunderground v.1.15,2013-01-19 21:40:00,
2013-01-19 13:46:00,75.0,12.3,30.12,NNE,32,6.0,13.0,9,0.00,,,0.00,Wunderground v.1.15,2013-01-19 21:46:00,
2013-01-19 13:52:00,75.0,14.7,30.12,NNE,33,6.0,13.0,10,0.00,,,0.00,Wunderground v.1.15,2013-01-19 21:52:00,
2013-01-19 13:58:00,75.2,12.4,30.12,NNW,327,6.0,6.0,9,0.00,,,0.00,Wunderground v.1.15,2013-01-19 21:58:00,
2013-01-19 14:04:00,75.1,14.8,30.12,NNE,15,5.0,6.0,10,0.00,,,0.00,Wunderground v.1.15,2013-01-19 22:04:00,
2013-01-19 14:10:00,75.2,14.8,30.12,SE,124,5.0,5.0,10,0.00,,,0.00,Wunderground v.1.15,2013-01-19 22:10:00,
2013-01-19 14:16:00,75.5,15.1,30.12,NNE,32,4.0,8.0,10,0.00,,,0.00,Wunderground v.1.15,2013-01-19 22:16:00,
2013-01-19 14:22:00,75.5,12.7,30.11,NNE,16,4.0,7.0,9,0.00,,,0.00,Wunderground v.1.15,2013-01-19 22:22:00,
2013-01-19 14:28:00,75.6,15.1,30.11,NNE,23,3.0,7.0,10,0.00,,,0.00,Wunderground v.1.15,2013-01-19 22:28:00,
2013-01-19 14:34:00,75.6,12.7,30.11,NNE,29,4.0,15.0,9,0.00,,,0.00,Wunderground v.1.15,2013-01-19 22:34:00,
2013-01-19 14:40:00,75.4,15.0,30.11,NNW,347,5.0,5.0,10,0.00,,,0.00,Wunderground v.1.15,2013-01-19 22:40:00,
2013-01-19 14:46:00,75.3,14.9,30.11,NW,313,4.0,15.0,10,0.00,,,0.00,Wunderground v.1.15,2013-01-19 22:46:00,
2013-01-19 14:56:00,75.1,14.8,30.11,North,352,3.0,15.0,10,0.00,,,0.00,Wunderground v.1.15,2013-01-19 22:56:00,
2013-01-19 15:02:00,74.8,14.5,30.10,SSE,152,5.0,10.0,10,0.00,,,0.00,Wunderground v.1.15,2013-01-19 23:02:00,
2013-01-19 15:10:00,74.7,14.5,30.11,NNW,340,4.0,4.0,10,0.00,,,0.00,Wunderground v.1.15,2013-01-19 23:10:00,
2013-01-19 15:18:00,74.4,16.4,30.11,North,1,4.0,7.0,11,0.00,,,0.00,Wunderground v.1.15,2013-01-19 23:18:00,
2013-01-19 15:24:00,74.5,16.5,30.11,North,352,3.0,5.0,11,0.00,,,0.00,Wunderground v.1.15,2013-01-19 23:24:00,
2013-01-19 15:30:00,74.6,16.6,30.10,NNE,29,3.0,3.0,11,0.00,,,0.00,Wunderground v.1.15,2013-01-19 23:30:00,
2013-01-19 15:36:00,74.3,14.1,30.10,NNW,335,4.0,14.0,10,0.00,,,0.00,Wunderground v.1.15,2013-01-19 23:36:00,
2013-01-19 15:42:00,74.2,16.3,30.10,NW,313,3.0,14.0,11,0.00,,,0.00,Wunderground v.1.15,2013-01-19 23:42:00,
2013-01-19 15:50:00,74.1,16.2,30.11,NE,49,2.0,14.0,11,0.00,,,0.00,Wunderground v.1.15,2013-01-19 23:50:00,
2013-01-19 15:56:00,73.9,16.0,30.11,NE,56,3.0,14.0,11,0.00,,,0.00,Wunderground v.1.15,2013-01-19 23:56:00,
2013-01-19 16:02:00,73.7,15.9,30.11,NNW,345,3.0,3.0,11,0.00,,,0.00,Wunderground v.1.15,2013-01-20 00:02:00,
2013-01-19 16:08:00,73.6,15.8,30.11,North,352,2.0,3.0,11,0.00,,,0.00,Wunderground v.1.15,2013-01-20 00:08:00,
2013-01-19 16:14:00,73.3,15.6,30.11,North,1,2.0,2.0,11,0.00,,,0.00,Wunderground v.1.15,2013-01-20 00:14:00,
2013-01-19 16:20:00,73.1,15.4,30.11,North,353,2.0,2.0,11,0.00,,,0.00,Wunderground v.1.15,2013-01-20 00:20:00,
2013-01-19 16:26:00,72.8,15.2,30.11,North,356,2.0,3.0,11,0.00,,,0.00,Wunderground v.1.15,2013-01-20 00:26:00,
2013-01-19 16:34:00,72.4,16.9,30.11,North,6,1.0,10.0,12,0.00,,,0.00,Wunderground v.1.15,2013-01-20 00:34:00,
2013-01-19 16:40:00,71.6,14.2,30.11,NNE,20,1.0,10.0,11,0.00,,,0.00,Wunderground v.1.15,2013-01-20 00:40:00,
2013-01-19 16:48:00,70.8,13.6,30.12,NNW,348,1.0,10.0,11,0.00,,,0.00,Wunderground v.1.15,2013-01-20 00:48:00,
2013-01-19 16:54:00,70.3,13.2,30.12,NNW,334,2.0,10.0,11,0.00,,,0.00,Wunderground v.1.15,2013-01-20 00:54:00,
2013-01-19 17:00:00,69.5,14.6,30.12,North,359,1.0,1.0,12,0.00,,,0.00,Wunderground v.1.15,2013-01-20 01:00:00,
2013-01-19 17:06:00,68.4,15.6,30.12,North,358,0.0,1.0,13,0.00,,,0.00,Wunderground v.1.15,2013-01-20 01:06:00,
2013-01-19 17:12:00,67.1,14.5,30.12,ESE,104,0.0,0.0,13,0.00,,,0.00,Wunderground v.1.15,2013-01-20 01:12:00,
2013-01-19 17:18:00,66.2,13.8,30.12,ESE,121,0.0,0.0,13,0.00,,,0.00,Wunderground v.1.15,2013-01-20 01:18:00,
2013-01-19 17:24:00,65.4,14.9,30.12,ESE,121,0.0,0.0,14,0.00,,,0.00,Wunderground v.1.15,2013-01-20 01:24:00,
2013-01-19 17:30:00,64.7,14.3,30.13,ESE,121,0.0,0.0,14,0.00,,,0.00,Wunderground v.1.15,2013-01-20 01:30:00,
2013-01-19 17:36:00,64.5,14.2,30.13,ESE,121,0.0,9.0,14,0.00,,,0.00,Wunderground v.1.15,2013-01-20 01:36:00,
2013-01-19 17:44:00,63.4,13.3,30.13,ESE,121,0.0,9.0,14,0.00,,,0.00,Wunderground v.1.15,2013-01-20 01:44:00,
2013-01-19 17:50:00,62.2,13.9,30.13,ESE,122,0.0,9.0,15,0.00,,,0.00,Wunderground v.1.15,2013-01-20 01:50:00,
2013-01-19 17:56:00,60.9,15.7,30.13,ESE,121,0.0,9.0,17,0.00,,,0.00,Wunderground v.1.15,2013-01-20 01:56:00,
2013-01-19 18:02:00,60.0,15.0,30.13,NNE,31,0.0,0.0,17,0.00,,,0.00,Wunderground v.1.15,2013-01-20 02:02:00,
2013-01-19 18:08:00,59.5,14.6,30.13,NNE,31,0.0,0.0,17,0.00,,,0.00,Wunderground v.1.15,2013-01-20 02:08:00,
2013-01-19 18:14:00,59.5,14.6,30.13,NNE,31,0.0,0.0,17,0.00,,,0.00,Wunderground v.1.15,2013-01-20 02:14:00,
2013-01-19 18:20:00,59.5,14.6,30.14,NNE,32,0.0,0.0,17,0.00,,,0.00,Wunderground v.1.15,2013-01-20 02:20:00,
2013-01-19 18:26:00,59.0,14.2,30.14,NNE,31,0.0,0.0,17,0.00,,,0.00,Wunderground v.1.15,2013-01-20 02:26:00,
2013-01-19 18:32:00,58.9,14.1,30.14,ENE,60,0.0,0.0,17,0.00,,,0.00,Wunderground v.1.15,2013-01-20 02:32:00,
2013-01-19 18:38:00,58.6,15.2,30.14,ENE,60,0.0,0.0,18,0.00,,,0.00,Wunderground v.1.15,2013-01-20 02:38:00,
2013-01-19 18:44:00,58.4,15.0,30.14,North,4,0.0,0.0,18,0.00,,,0.00,Wunderground v.1.15,2013-01-20 02:44:00,
2013-01-19 18:50:00,58.4,15.0,30.14,North,354,0.0,0.0,18,0.00,,,0.00,Wunderground v.1.15,2013-01-20 02:50:00,
2013-01-19 18:56:00,58.3,14.9,30.14,North,360,0.0,0.0,18,0.00,,,0.00,Wunderground v.1.15,2013-01-20 02:56:00,
2013-01-19 19:04:00,59.4,14.5,30.14,NNE,15,0.0,0.0,17,0.00,,,0.00,Wunderground v.1.15,2013-01-20 03:04:00,
2013-01-19 19:10:00,60.3,13.9,30.14,NNW,336,0.0,0.0,16,0.00,,,0.00,Wunderground v.1.15,2013-01-20 03:10:00,
2013-01-19 19:16:00,60.5,15.4,30.15,NNW,336,0.0,0.0,17,0.00,,,0.00,Wunderground v.1.15,2013-01-20 03:16:00,
2013-01-19 19:22:00,59.9,14.9,30.15,NNW,336,0.0,0.0,17,0.00,,,0.00,Wunderground v.1.15,2013-01-20 03:22:00,
2013-01-19 19:28:00,59.1,14.3,30.15,NNW,335,0.0,0.0,17,0.00,,,0.00,Wunderground v.1.15,2013-01-20 03:28:00,
2013-01-19 19:34:00,58.8,14.0,30.15,WSW,239,0.0,0.0,17,0.00,,,0.00,Wunderground v.1.15,2013-01-20 03:34:00,